EHI
0 0 0 0 0 0 0 0 0 0 0 0 0 0 0 0 0 0 0 0 0 0 0 0 0 0 0 0 0 0 0 0 0 0 0 0 0 0 0 0 0 0 0 0
0 0 0 0 0 0 0 0 0 0 0 0 0 0 0 0 0 0 0 0 0 0 0 0 0 0 0 0 0 0 0 0 0 0 0 0 0 0 0 0 0 0 0 0
0 0 0 0 0 0 0 0 0 0 0 0 0 0 0 0 0 0 0 0 0 0 0 0 0 0 0 0 0 0 0 0 0 0 0 0 0 0 0 0 0 0 0 0
0 0 0 0 0 0 0 0 0 0 0 0 0 0 0 0 0 0 0 0 0 0 0 0 0 0 0 0 0 0 0 0 0 0 0 0 0 0 0 0 0 0 0 0
0 0 0 0 0 0 0 0 0 0 0 0 0 0 0 0 0 0 0 0 0 0 0 0 0 0 0 0 0 0 0 0 0 0 0 0 0 0 0 0 0 0 0 0
0 0 0 0 0 0 0 0 0 0 0 0 0 0 0 0 0 0 0 0 0 0 0 0 0 0 0 0 0 0 0 0 0 0 0 0 0 0 0 0 0 0 0 0
0 0 0 0 0 0 0 0 0 0 0 0 0 0 0 0 0 0 0 0 0 0 0 0 0 0 0 0 0 0 0 0 0 0 0 0 0 0 0 0 0 0 0 0
0 0 0 0 0 0 0 0 0 0 0 0 0 0 0 0 0 0 0 0 0 0 0 0 0 0 0 0 0 0 0 0 0 0 0 0 0 0 0 0 0 0 0 0
0 0 0 0 0 0 0 0 0 0 0 0 0 0 0 0 0 0 0 0 0 0 0 0 0 0 0 0 0 0 0 0 0 0 0 0 0 0 0 0 0 0 0 0
0 0 0 0 0 0 0 0 0 0 0 0 0 0 0 0 0 0 0 0 0 0 0 0 0 0 0 0 0 0 0 0 0 0 0 0 0 0 0 0 0 0 0 0
0 0 0 0 0 0 0 0 0 0 0 0 0 0 0 0 0 0 0 0 0 0 0 0 0 0 0 0 0 0 0 0 0 0 0 0 0 0 0 0 0 0 0 0
0 0 0 0 0 0 0 0 0 0 0 0 0 0 0 0 0 0 0 0 0 0 0 0 0 0 0 0 0 0 0 0 0 0 0 0 0 0 0 0 0 0 0 0
0 0 0 0 0 0 0 0 0 0 0 0 0 0 0 0 0 0 0 0 0 0 0 0 0 0 0 0 0 0 0 0 0 0 0 0 0 0 0 0 0 0 0 0
0 0 0 0 0 0 0 0 0 0 0 0 0 0 0 0 0 0 0 0 0 0 0 0 0 0 0 0 0 0 0 0 0 0 0 0 0 0 0 0 0 0 0 0
0 0 0 0 0 0 0 0 0 0 0 0 0 0 0 0 0 0 0 0 0 0 0 0 0 0 0 0 0 0 0 0 0 0 0 0 0 0 0 0 0 0 0 0
0 0 0 0 0 0 0 0 0 0 0 0 0 0 0 0 0 0 0 0 0 0 0 0 0 0 0 0 0 0 0 0 0 0 0 0 0 0 0 0 0 0 0 0
0 0 0 0 0 0 0 0 0 0 0 0 0 0 0 0 0 0 0 0 0 0 0 0 0 0 0 0 0 0 0 0 0 0 0 0 0 0 0 0 0 0 0 0
0 0 0 0 0 0 0 0 0 0 0 0 0 0 0 0 0 0 0 0 0 0 0 0 0 0 0 0 0 0 0 0 0 0 0 0 0 0 0 0 0 0 0 0
0 0 0 0 0 0 0 0 0 0 0 0 0 0 0 0 0 0 0 0 0 0 0 0 0 0 0 0 0 0 0 0 0 0 0 0 0 0 0 0 0 0 0 0
0 0 0 0 0 0 0 0 0 0 0 0 0 0 0 0 0 0 0 0 0 0 0 0 0 0 0 0 0 0 0 0 0 0 0 0 0 0 0 0 0 0 0 0
0 0 0 0 0 0 0 0 0 0 0 0 0 0 0 0 0 0 0 0 0 0 0 0 0 0 0 0 0 0 0 0 0 0 0 0 0 0 0 0 0 0 0 0
0 0 0 0 0 0 0 0 0 0 0 0 0 0 0 0 0 0 0 0 0 0 0 0 0 0 0 0 0 0 0 0 0 0 0 0 0 0 0 0 0 0 0 0
0 0 0 0 0 0 0 0 0 0 0 0 0 0 0 0 0 0 0 0 0 0 0 0 0 0 0 0 0 0 0 0 0 0 0 0 0 0 0 0 0 0 0 0
0 0 0 0 0 0 0 0 0 0 0 0 0 0 0 0 0 0 0 0 0 0 0 0 0 0 0 0 0 0 0 0 0 0 0 0 0 0 0 0 0 0 0 0
0 0 0 0 0 0 0 0 0 0 0 0 0 0 0 0 0 0 0 0 0 0 0 0 0 0 0 0 0 0 0 0 0 0 0 0 0 0 0 0 0 0 0 0
0 0 0 0 0 0 0 0 0 0 0 0 0 0 0 0 0 0 0 0 0 0 0 0 0 0 0 0 0 0 0 0 0 0 0 0 0 0 0 0 0 0 0 0
0 0 0 0 0 0 0 0 0 0 0 0 0 0 0 0 0 0 0 0 0 0 0 0 0 0 0 0 0 0 0 0 0 0 0 0 0 0 0 0 0 0 0 0
Wind_Speed
5 6 4 5 7 8 9 9 7 7 7 7 3 2 2 1 1 1 2 2 2 2 3 3 3 3 3 3 3 3 3 3 3 3 2 2 2 3 3 3 3 3 3 3
5 5 4 6 8 9 10 9 10 9 10 5 3 2 2 2 2 3 3 3 2 3 3 3 3 4 3 4 4 3 3 4 4 3 3 3 3 3 3 3 3 3 4 4
3 2 3 8 9 10 8 7 7 10 8 2 3 3 3 3 3 3 3 3 3 3 3 3 4 4 4 4 4 4 4 4 4 3 3 3 4 3 4 4 4 4 4 4
2 1 7 6 1 5 7 6 6 5 3 2 4 4 4 2 2 2 2 3 3 3 3 4 4 4 4 4 4 4 4 4 4 3 4 4 4 4 4 4 4 4 4 4
2 4 7 3 1 3 4 6 4 5 5 3 3 3 2 1 1 1 2 3 3 3 3 3 4 4 4 4 4 4 4 4 4 4 4 4 4 4 4 4 4 4 3 3
3 4 6 2 1 1 2 4 2 2 3 3 1 2 3 2 3 3 3 2 2 2 3 3 4 3 3 4 4 4 4 4 4 4 4 4 4 4 3 3 3 3 3 3
6 5 6 1 1 3 2 4 2 2 2 1 2 4 3 2 3 3 3 3 2 2 2 3 3 3 3 4 4 4 4 4 4 4 4 4 4 3 3 3 3 3 3 3
5 6 6 1 2 3 3 1 1 2 2 1 2 2 2 2 2 3 3 3 3 2 3 3 3 3 3 4 4 4 4 3 4 4 4 3 3 3 3 3 3 3 3 3
5 5 1 3 3 2 0 1 1 2 2 1 1 2 2 2 2 2 2 3 3 3 3 4 3 3 4 5 4 3 3 3 4 4 3 3 3 3 3 2 2 2 2 2
3 4 2 2 2 1 1 1 2 1 1 0 1 2 2 3 3 2 3 3 3 3 3 4 4 4 4 4 4 3 3 3 4 3 3 3 2 2 2 2 2 3 3 3
5 4 3 2 2 2 1 1 1 1 1 0 1 1 2 2 2 2 3 3 2 3 3 5 5 4 4 4 3 2 3 3 3 3 3 3 3 2 2 2 3 3 3 3
4 2 2 2 1 1 1 1 1 1 1 1 0 1 2 2 2 2 3 3 3 3 3 4 5 5 5 4 3 2 3 3 3 3 3 2 3 3 4 4 5 6 7 6
3 2 2 3 2 0 1 1 1 1 1 2 1 1 1 2 2 2 3 3 3 3 4 4 5 5 5 4 3 3 3 3 3 3 3 3 3 3 3 4 5 6 7 7
2 2 3 2 2 1 1 1 0 1 1 1 1 1 1 1 2 2 3 3 3 3 4 4 4 5 5 4 3 3 3 3 3 3 3 3 3 3 3 3 4 4 4 6
2 2 3 1 1 0 0 0 0 1 1 1 1 1 1 2 2 3 3 3 3 3 4 4 5 5 5 4 4 3 3 2 3 3 3 3 3 3 2 3 3 3 3 3
2 2 2 2 2 2 1 1 1 2 2 1 2 2 2 2 2 3 3 2 3 3 4 4 5 5 5 4 4 3 2 4 4 3 3 3 3 2 2 2 3 3 3 3
2 3 3 3 3 3 2 2 2 2 2 2 2 2 2 2 2 3 3 3 3 3 3 4 5 5 4 4 4 3 3 3 5 3 3 3 2 2 2 2 2 3 3 3
3 3 2 3 3 2 2 2 1 2 2 2 2 1 1 2 2 3 3 3 3 3 3 3 4 4 4 4 3 3 2 2 2 2 3 3 3 2 2 2 2 3 2 3
1 2 2 2 2 2 2 2 2 1 1 1 1 1 2 2 2 3 3 3 3 4 4 4 6 5 4 5 5 3 3 3 3 2 2 3 3 2 2 2 2 2 2 2
1 1 1 1 1 1 1 1 1 1 1 1 1 1 2 2 2 2 2 2 3 3 3 4 4 4 4 4 5 3 3 3 3 3 2 2 2 2 2 2 2 2 2 2
1 0 0 0 1 1 1 1 1 1 1 1 1 1 2 3 2 2 2 3 3 3 3 5 3 3 3 4 5 3 3 3 3 2 2 2 2 2 2 2 2 2 2 2
1 1 1 0 0 1 1 1 1 1 1 1 1 1 1 2 2 2 2 2 3 5 4 2 3 4 5 5 3 3 3 3 3 2 2 2 2 2 2 2 2 2 2 2
0 1 1 1 1 1 1 1 0 1 1 1 1 2 2 2 2 2 3 2 2 4 3 2 5 7 7 4 2 3 3 3 3 2 3 3 3 2 2 2 2 2 2 2
0 0 0 0 1 0 1 1 1 1 1 1 2 2 2 2 2 2 2 4 5 5 3 4 7 7 6 3 2 2 3 3 3 2 3 3 3 2 2 2 2 2 2 3
0 1 1 1 1 1 1 1 1 1 1 1 1 1 1 1 2 2 2 3 4 5 3 4 6 7 4 2 2 2 2 2 3 2 2 3 3 3 3 2 2 2 2 3
1 1 1 1 1 1 1 1 1 1 1 1 1 1 1 1 1 2 2 2 3 4 3 3 3 4 3 2 2 3 3 3 3 3 3 3 3 3 3 3 3 3 3 3
1 0 0 0 0 1 1 1 1 1 1 1 1 1 1 1 1 2 2 2 2 2 3 3 2 2 2 2 3 3 3 3 3 3 3 3 3 3 3 3 3 3 2 2
Wind_Direction
273 283 269 250 233 214 215 222 226 245 251 261 256 254 262 272 296 308 307 307 309 315 318 320 323 323 328 328 324 317 311 302 294 290 287 286 287 284 277 275 274 267 268 268
272 260 258 262 246 227 228 234 245 264 272 268 296 314 294 288 285 280 284 291 301 315 319 322 323 320 321 318 310 308 304 300 299 296 294 286 276 278 278 273 270 266 260 259
266 292 299 261 229 213 221 224 221 239 249 299 315 294 275 272 267 268 272 294 303 308 309 313 314 318 314 310 313 312 304 299 298 298 296 290 283 279 273 269 268 263 260 256
267 291 244 242 207 193 219 239 230 247 271 281 273 278 277 259 246 278 306 305 306 311 309 309 312 313 307 304 304 300 298 297 298 295 291 291 287 280 274 271 269 265 261 260
222 252 265 256 214 177 201 255 233 238 262 287 317 312 294 97 78 321 311 308 304 301 300 301 304 305 303 295 297 298 296 296 300 296 290 287 283 280 276 272 270 267 263 261
224 240 248 232 117 92 113 271 315 252 260 268 301 266 262 11 2 340 332 320 309 305 305 304 307 312 307 299 298 292 291 294 296 294 288 283 282 280 278 277 274 273 272 270
228 243 261 250 151 111 166 250 336 346 311 276 234 238 269 328 336 343 334 328 325 320 311 304 310 314 304 300 292 292 294 293 294 295 292 288 286 283 283 282 283 281 278 280
200 224 245 159 138 186 222 308 332 329 332 310 298 317 332 333 333 337 336 334 333 329 317 311 312 309 301 294 295 302 302 298 299 300 299 300 293 289 282 280 280 280 281 286
204 219 205 157 174 193 159 284 297 322 324 336 313 313 322 326 326 329 331 328 331 329 321 317 314 306 297 298 301 303 310 308 301 299 301 302 293 287 285 280 279 281 278 283
261 257 237 214 219 224 217 268 301 310 306 343 289 300 316 319 322 329 329 324 323 323 320 316 314 308 300 303 304 300 303 305 302 301 301 305 299 287 281 279 276 279 281 284
247 269 300 262 236 240 239 289 316 332 336 228 242 297 298 309 314 318 318 319 320 314 311 314 317 316 313 311 310 301 296 299 304 302 300 300 299 289 277 267 266 273 273 275
234 231 228 262 280 261 212 235 256 281 320 325 277 270 290 298 305 311 312 316 316 313 315 317 321 319 317 317 312 298 294 298 299 298 297 295 296 303 297 282 291 288 283 276
242 293 276 272 289 303 253 258 259 254 247 283 296 275 281 298 311 314 314 315 313 317 319 321 323 321 323 322 317 301 291 294 295 293 293 293 294 296 305 309 300 298 295 290
247 254 261 254 261 298 283 282 298 297 272 259 270 305 314 315 317 317 311 312 318 321 322 323 324 324 326 327 322 308 299 298 299 291 291 292 288 290 293 300 308 307 305 302
247 240 242 245 247 284 312 4 16 314 319 336 342 322 310 311 307 306 309 317 324 325 326 331 330 328 331 332 325 312 298 296 295 298 300 299 299 298 295 294 295 299 306 310
253 252 238 229 238 250 262 258 256 275 286 296 310 304 299 299 301 307 313 323 329 322 323 326 324 325 333 331 323 313 303 302 303 299 299 302 303 301 298 297 297 298 302 308
210 239 235 241 246 251 243 241 239 251 261 269 280 295 311 320 321 321 325 329 322 311 315 320 322 331 337 336 323 309 307 307 310 307 300 298 302 300 294 292 296 301 301 305
225 232 232 231 235 249 263 261 250 256 260 264 280 290 292 293 292 300 312 323 328 325 323 324 329 336 337 333 326 317 311 305 304 302 303 304 303 298 295 294 299 304 311 324
258 245 243 238 230 224 243 253 261 265 271 269 272 275 278 279 283 296 311 321 320 318 320 328 334 341 332 330 333 325 320 316 314 308 306 307 314 318 316 314 315 321 328 334
289 262 243 252 249 225 242 251 254 267 269 262 271 291 302 302 305 307 311 303 295 297 307 324 332 331 328 328 336 329 323 318 316 317 320 319 313 311 310 313 318 322 329 333
259 244 228 251 299 293 258 240 223 255 289 282 241 257 278 295 301 298 305 306 310 321 325 330 336 327 326 329 333 335 331 329 329 330 331 325 318 317 315 318 324 326 326 328
240 219 227 223 252 297 300 284 215 232 281 293 282 276 289 297 305 305 287 278 299 324 337 329 323 327 333 334 333 333 333 332 329 330 328 324 320 318 318 319 317 317 318 318
229 219 228 227 228 271 325 326 280 236 249 259 263 264 268 278 281 291 301 306 321 326 335 319 323 330 337 341 335 330 328 328 326 325 322 318 316 316 317 318 316 317 314 311
235 226 237 210 125 104 310 304 308 287 257 266 262 256 261 291 296 281 287 308 322 325 328 321 332 337 343 350 336 327 324 323 321 320 318 317 315 314 313 314 314 316 314 312
212 202 175 156 184 236 248 263 312 297 293 291 285 282 274 262 270 297 315 312 316 331 333 329 335 340 345 333 327 325 324 322 320 318 316 317 315 315 313 311 311 312 311 307
217 228 228 222 217 221 222 217 257 273 283 306 309 308 312 320 318 312 313 313 317 329 333 328 328 330 333 329 326 325 322 321 323 321 316 312 309 307 306 306 305 303 302 302
227 225 201 263 266 236 240 246 247 263 264 267 291 299 309 322 328 324 324 328 330 330 326 326 327 328 328 327 326 325 321 317 313 309 308 305 302 300 301 299 298 297 299 303